TimeEST,TemperatureF,Dew PointF,Humidity,Sea Level PressureIn,VisibilityMPH,Wind Direction,Wind SpeedMPH,Gust SpeedMPH,PrecipitationIn,Events,Conditions,WindDirDegrees,DateUTC
12:32 AM,48.2,46.4,93,30.09,3.0,ESE,9.2,-,0.02,Rain,Light Rain,120,2013-01-12 05:32:00
12:51 AM,48.2,46.4,93,30.07,2.5,ESE,9.2,-,0.02,Rain,Light Rain,110,2013-01-12 05:51:00
12:53 AM,48.0,46.9,96,30.07,2.5,ESE,10.4,-,0.02,Rain,Light Rain,110,2013-01-12 05:53:00
1:13 AM,48.2,46.4,93,30.06,3.0,ESE,11.5,-,0.00,Rain,Light Rain,110,2013-01-12 06:13:00
1:39 AM,46.4,46.4,100,30.07,3.0,East,9.2,-,0.00,Rain,Light Rain,100,2013-01-12 06:39:00
1:53 AM,46.9,46.9,100,30.08,2.5,East,6.9,-,0.00,Rain,Light Rain,100,2013-01-12 06:53:00
3:53 AM,46.0,45.0,96,30.06,2.5,North,10.4,-,0.00,Rain,Light Rain,10,2013-01-12 08:53:00
4:30 AM,44.6,42.8,93,30.06,3.0,North,15.0,-,0.00,Rain,Light Rain,10,2013-01-12 09:30:00
4:53 AM,44.1,43.0,96,30.06,4.0,NNE,13.8,-,0.00,Rain,Light Rain,20,2013-01-12 09:53:00
5:04 AM,44.6,42.8,93,30.06,3.0,NNE,12.7,-,N/A,,Overcast,20,2013-01-12 10:04:00
5:12 AM,44.6,42.8,93,30.06,3.0,NNE,12.7,-,N/A,,Overcast,20,2013-01-12 10:12:00
5:22 AM,44.6,42.8,93,30.06,2.5,NNE,11.5,-,N/A,,Overcast,20,2013-01-12 10:22:00
5:29 AM,42.8,42.8,100,30.07,2.5,NNE,11.5,-,N/A,,Overcast,20,2013-01-12 10:29:00
5:46 AM,42.8,42.8,100,30.07,3.0,NNE,10.4,-,N/A,,Overcast,20,2013-01-12 10:46:00
5:53 AM,44.1,43.0,96,30.08,3.0,NNE,10.4,-,N/A,,Overcast,20,2013-01-12 10:53:00
6:53 AM,43.0,42.1,97,30.10,5.0,North,15.0,-,N/A,,Overcast,10,2013-01-12 11:53:00
7:53 AM,43.0,42.1,97,30.11,8.0,NNE,11.5,-,N/A,,Overcast,30,2013-01-12 12:53:00
8:53 AM,43.0,42.1,97,30.15,9.0,NNE,10.4,-,N/A,,Overcast,20,2013-01-12 13:53:00
9:53 AM,43.0,42.1,97,30.15,10.0,NE,11.5,-,N/A,,Overcast,40,2013-01-12 14:53:00
10:53 AM,44.1,43.0,96,30.13,10.0,NE,6.9,-,N/A,,Overcast,40,2013-01-12 15:53:00
11:53 AM,44.1,43.0,96,30.13,10.0,North,6.9,-,N/A,,Overcast,10,2013-01-12 16:53:00
12:48 PM,44.6,42.8,93,30.13,1.8,North,5.8,-,N/A,,Overcast,10,2013-01-12 17:48:00
12:53 PM,45.0,43.0,93,30.13,1.2,North,4.6,-,N/A,,Overcast,360,2013-01-12 17:53:00
1:06 PM,44.6,42.8,93,30.13,0.8,North,5.8,-,N/A,,Overcast,10,2013-01-12 18:06:00
1:16 PM,44.6,42.8,93,30.14,1.8,North,5.8,-,N/A,,Overcast,10,2013-01-12 18:16:00
1:21 PM,44.6,42.8,93,30.14,3.0,North,4.6,-,N/A,,Overcast,360,2013-01-12 18:21:00
1:53 PM,45.0,44.1,97,30.16,2.5,North,5.8,-,N/A,,Overcast,10,2013-01-12 18:53:00
2:09 PM,44.6,44.6,100,30.16,1.2,North,4.6,-,N/A,,Overcast,350,2013-01-12 19:09:00
2:53 PM,44.1,44.1,100,30.14,1.0,NE,4.6,-,N/A,,Overcast,40,2013-01-12 19:53:00
3:04 PM,44.6,44.6,100,30.14,0.8,NNE,4.6,-,N/A,,Overcast,30,2013-01-12 20:04:00
3:16 PM,44.6,44.6,100,30.14,0.5,NE,4.6,-,N/A,Fog,Fog,50,2013-01-12 20:16:00
3:31 PM,44.6,44.6,100,30.14,1.0,North,3.5,-,N/A,,Overcast,360,2013-01-12 20:31:00
3:53 PM,44.1,44.1,100,30.15,1.5,NNE,3.5,-,N/A,,Overcast,20,2013-01-12 20:53:00
4:11 PM,44.6,42.8,93,30.15,2.5,NNE,4.6,-,N/A,,Overcast,30,2013-01-12 21:11:00
4:29 PM,44.6,44.6,100,30.15,1.8,NE,4.6,-,N/A,,Overcast,40,2013-01-12 21:29:00
4:43 PM,44.6,42.8,93,30.15,0.5,NE,3.5,-,N/A,Fog,Fog,50,2013-01-12 21:43:00
4:53 PM,44.1,43.0,96,30.16,0.5,NNE,3.5,-,N/A,Fog,Fog,20,2013-01-12 21:53:00
5:09 PM,42.8,42.8,100,30.15,1.0,ENE,4.6,-,N/A,,Overcast,60,2013-01-12 22:09:00
5:32 PM,42.8,42.8,100,30.17,2.0,ENE,3.5,-,N/A,,Overcast,70,2013-01-12 22:32:00
5:43 PM,42.8,42.8,100,30.17,1.5,North,4.6,-,N/A,,Overcast,360,2013-01-12 22:43:00
5:53 PM,43.0,43.0,100,30.18,1.8,Calm,Calm,-,N/A,,Overcast,0,2013-01-12 22:53:00
6:13 PM,42.8,42.8,100,30.18,2.0,North,3.5,-,N/A,,Overcast,350,2013-01-12 23:13:00
6:23 PM,42.8,42.8,100,30.18,1.0,North,3.5,-,N/A,,Overcast,350,2013-01-12 23:23:00
6:53 PM,43.0,43.0,100,30.17,0.8,Calm,Calm,-,N/A,,Overcast,0,2013-01-12 23:53:00
7:53 PM,42.1,42.1,100,30.16,0.5,Calm,Calm,-,N/A,Fog,Fog,0,2013-01-13 00:53:00
8:53 PM,42.1,41.0,96,30.16,0.5,Calm,Calm,-,N/A,Fog,Fog,0,2013-01-13 01:53:00
9:45 PM,42.8,41.0,93,30.15,0.2,Calm,Calm,-,N/A,Fog,Fog,0,2013-01-13 02:45:00
9:53 PM,42.1,42.1,100,30.14,0.2,Calm,Calm,-,N/A,Fog,Fog,0,2013-01-13 02:53:00
10:53 PM,42.1,42.1,100,30.14,0.2,Calm,Calm,-,N/A,Fog,Fog,0,2013-01-13 03:53:00
11:44 PM,41.0,41.0,100,30.15,0.5,WNW,3.5,-,N/A,Fog,Fog,290,2013-01-13 04:44:00
11:53 PM,41.0,41.0,100,30.15,0.5,Calm,Calm,-,N/A,Fog,Fog,0,2013-01-13 04:53:00